Location: Ostrava
(49.8330°N, 18.2830°E)
Time: 00:26:35
(UTC+01:00)

Iridium 7 - Visible Passes

Search period start: 20 December 2014 00:00
Search period end: 30 December 2014 00:00
Orbit: 776 x 779 km, 86.4° (Epoch: 19 December)

Date Brightness Start Highest point End Pass type
(mag) Time Alt. Az. Time Alt. Az. Time Alt. Az.
20 Dec 6.0 16:56:30 10° SSW 17:01:40 65° W 17:06:52 10° N visible
20 Dec 8.6 18:42:33 10° WNW 18:43:30 10° WNW 18:44:28 10° NW visible
21 Dec 5.5 16:22:55 10° S 16:28:06 75° E 16:33:20 10° N visible
21 Dec 8.2 18:06:01 10° WSW 18:09:28 18° WNW 18:12:56 10° NNW visible
22 Dec 7.5 17:31:06 10° SW 17:35:35 29° WNW 17:40:05 10° NNW visible
23 Dec 6.6 16:56:48 10° SSW 17:01:49 47° W 17:06:52 10° N visible
24 Dec 5.7 16:22:58 10° S 16:28:11 80° W 16:33:26 10° N visible
24 Dec 8.3 18:07:28 10° W 18:09:50 13° WNW 18:12:13 10° NW visible
25 Dec 7.9 17:31:55 10° WSW 17:35:51 21° WNW 17:39:48 10° NNW visible
26 Dec 7.2 16:57:16 10° SW 17:02:00 35° WNW 17:06:46 10° N visible
27 Dec 6.2 16:23:10 10° SSW 16:28:17 58° W 16:33:27 10° N visible
28 Dec 8.2 17:33:01 10° WSW 17:36:10 16° WNW 17:39:19 10° NNW visible
29 Dec 7.7 16:57:55 10° SW 17:02:14 26° WNW 17:06:34 10° NNW visible
